Temperature
19 19 19 19 22 24 24 24 23 23 23 23 22 23 23 23 23 21 18 18 18 18 17 18 18 18 18 18 18 18 18 18 18 18 18 18 18 18 18 18 18 18 18 18 18 18 18 18 18
19 19 19 21 24 24 24 24 24 24 23 22 23 23 23 22 20 19 18 18 18 17 17 17 18 18 18 18 18 18 17 17 17 17 17 17 17 17 17 17 18 18 18 18 18 18 18 18 18
19 19 20 23 24 24 24 24 24 23 23 23 23 23 23 21 20 19 18 18 18 17 17 17 18 17 17 17 17 17 17 17 17 17 17 17 17 17 17 17 17 17 17 17 18 18 18 18 18
18 19 21 24 24 24 24 24 24 24 23 23 23 23 21 20 19 19 18 18 18 17 17 17 17 17 17 17 17 17 17 17 17 17 17 17 17 17 17 17 17 17 17 17 17 17 17 17 17
19 21 23 24 24 24 24 24 24 24 24 23 23 23 21 19 19 18 18 18 18 17 17 17 17 17 17 17 17 17 17 17 17 17 17 17 17 17 17 17 17 17 17 17 17 17 17 17 17
20 22 24 24 24 24 24 24 24 25 24 23 23 23 21 19 19 18 18 18 18 17 17 17 17 17 17 17 17 16 16 16 16 16 16 16 16 16 16 16 16 17 17 17 17 17 17 17 17
22 23 24 24 23 24 24 23 24 24 24 23 23 23 21 19 19 18 18 18 17 17 17 17 17 17 17 17 17 16 16 16 16 16 16 16 16 16 16 16 16 16 16 16 17 17 17 17 17
20 23 24 24 23 23 23 23 23 24 24 22 22 23 22 20 19 18 18 18 17 17 17 17 17 17 16 16 16 16 16 16 16 16 16 16 16 16 16 16 16 16 16 16 16 16 16 17 17
20 23 23 23 23 23 24 24 23 22 23 22 22 22 21 20 19 18 18 18 18 17 17 17 17 17 16 16 16 16 16 16 15 15 15 15 15 15 15 15 15 15 15 16 16 16 16 16 16
21 23 23 23 24 24 24 24 23 23 24 23 22 21 20 19 19 19 19 19 18 18 18 17 17 17 16 16 16 16 15 15 15 15 15 15 15 15 15 15 15 15 15 15 16 16 16 16 16
22 23 23 23 23 23 24 23 23 24 24 24 23 21 20 20 20 19 20 19 19 18 18 17 17 17 17 16 16 16 15 15 15 15 15 15 15 15 15 15 15 15 15 15 15 15 16 16 16
23 23 22 23 22 23 23 23 23 23 24 23 23 22 21 20 20 20 20 20 19 18 18 17 17 17 17 16 16 16 15 15 15 15 15 15 15 15 15 15 15 15 15 15 15 15 15 16 16
23 23 22 22 22 22 23 23 23 24 23 22 22 21 21 21 21 20 20 20 19 18 18 18 17 17 17 16 16 16 15 15 15 14 14 14 14 15 15 15 14 14 15 15 15 15 15 15 16
23 22 22 22 22 22 23 23 23 24 23 22 22 22 22 21 21 20 20 20 19 19 18 18 17 17 17 16 16 16 15 15 15 14 14 14 14 14 14 14 14 14 14 14 14 15 15 15 15
22 23 23 23 23 23 23 24 24 23 23 23 22 22 22 21 21 20 20 20 19 19 18 18 17 17 16 16 16 15 15 15 15 14 14 14 14 14 14 14 14 14 14 14 14 15 14 15 15
23 23 23 23 23 23 23 24 25 23 23 23 23 22 21 21 21 21 20 20 19 19 18 18 17 17 16 16 15 15 15 15 14 14 14 14 14 14 13 13 14 13 14 14 14 14 14 15 15
23 23 23 23 24 24 24 24 25 23 23 23 23 23 22 22 21 21 20 20 19 19 18 18 17 17 16 16 15 15 15 14 14 14 14 13 13 13 13 13 13 13 13 13 14 14 14 14 14
23 24 24 24 24 24 24 24 25 23 23 24 24 23 23 22 22 21 20 20 19 19 19 18 18 17 17 16 15 15 15 14 14 14 13 13 13 13 13 13 13 13 13 13 13 13 13 14 14
23 24 24 24 24 24 24 25 25 24 23 24 24 24 23 23 22 21 20 20 19 19 19 18 18 17 17 16 15 15 15 14 14 14 13 13 13 13 13 13 13 13 13 13 13 13 13 13 14
23 24 24 24 24 24 25 25 25 24 23 23 23 24 23 23 22 21 20 20 19 19 19 18 18 17 17 16 16 15 15 14 14 14 13 13 13 13 13 13 13 13 13 13 13 13 13 13 14
23 24 24 24 24 24 25 25 25 25 23 22 22 22 23 22 22 21 20 20 19 19 19 19 18 17 17 17 16 15 15 15 14 14 13 13 13 13 13 12 12 12 13 13 13 13 13 13 13
23 23 23 24 25 24 25 24 25 25 24 24 23 22 22 21 21 21 20 20 19 19 19 18 18 17 17 17 16 15 15 15 14 14 14 13 13 13 13 13 12 12 13 13 13 13 13 13 13
23 23 24 24 25 25 25 25 25 24 24 23 23 22 21 21 20 20 19 19 19 19 19 18 18 18 17 17 16 16 15 15 14 14 14 13 13 13 13 13 13 13 13 13 13 13 13 13 13
23 23 24 24 25 24 24 25 23 23 23 23 23 22 21 21 20 20 19 19 19 19 19 19 18 18 18 17 16 16 15 15 14 14 14 13 13 13 13 13 13 13 13 13 13 13 13 13 13
24 24 24 24 24 24 24 24 23 22 22 22 22 21 21 20 20 19 19 19 19 19 19 19 18 18 17 17 17 16 16 15 15 14 14 13 14 13 13 13 13 13 13 12 13 13 13 13 13
24 25 24 23 23 24 24 24 23 22 21 21 21 20 20 19 19 19 18 19 19 19 19 19 18 18 17 17 16 16 16 15 15 14 14 14 14 13 13 13 13 13 13 13 12 13 13 12 13
24 24 24 25 24 24 24 24 23 22 22 21 20 20 19 19 18 18 18 18 18 18 18 18 18 18 17 17 16 16 16 15 15 14 14 14 13 13 13 13 13 13 13 13 13 13 13 13 13
24 24 25 25 24 23 23 23 23 21 21 21 20 19 18 18 17 17 17 17 17 18 18 18 18 17 17 17 16 16 16 15 15 15 14 14 14 13 13 13 13 13 13 13 13 13 13 13 13
24 24 24 24 24 24 23 23 21 21 20 20 19 18 18 17 17 16 17 17 17 17 17 17 17 17 17 17 16 16 16 15 15 15 14 14 14 13 13 13 13 13 13 13 13 13 13 13 13
24 24 25 24 24 24 24 22 20 20 19 19 18 18 17 16 16 16 16 16 17 17 17 17 17 17 17 17 16 16 16 15 15 14 14 14 14 14 13 13 13 13 13 13 13 13 13 13 13
Wind_Speed
4 3 2 3 3 1 4 4 3 3 3 3 3 3 4 5 4 4 4 5 7 9 9 10 8 8 8 8 8 7 6 6 5 5 4 4 4 3 2 1 1 0 0 1 1 1 1 1 1
3 2 3 3 2 2 5 4 4 5 3 3 3 3 4 5 5 5 6 7 8 9 8 9 9 8 8 7 6 6 6 5 5 4 4 3 3 2 1 1 1 1 2 2 2 2 2 2 2
4 2 2 2 0 3 4 4 5 4 3 2 3 3 4 4 5 5 8 9 9 9 8 9 8 8 8 7 6 6 6 5 5 4 3 2 2 2 2 2 2 2 3 3 2 2 3 3 3
3 2 2 1 3 4 3 4 3 3 3 2 2 4 4 5 4 7 10 10 10 9 9 10 8 8 7 7 6 5 5 5 4 3 3 3 2 2 3 3 3 3 4 4 3 3 3 3 4
2 2 2 2 3 3 3 2 2 2 3 3 3 5 6 6 8 10 10 9 9 9 8 9 8 7 7 6 6 5 5 4 3 3 3 3 3 3 3 4 4 4 4 5 4 4 3 4 4
2 3 2 2 4 3 3 2 2 2 3 3 3 5 6 7 9 10 9 9 8 8 8 9 9 7 6 6 6 6 5 4 4 3 3 3 3 4 4 5 5 5 5 5 5 4 4 5 5
2 2 1 2 3 4 3 2 1 2 3 3 2 4 6 8 9 9 9 8 8 7 6 6 7 7 7 6 6 5 5 4 4 4 3 3 3 4 4 5 5 5 5 4 5 5 5 5 5
2 2 2 2 3 3 2 2 1 1 3 3 1 3 6 10 10 9 8 8 7 6 5 4 4 4 4 5 7 5 5 5 4 4 4 3 2 2 2 4 4 5 5 5 4 5 5 6 6
3 3 3 2 2 4 3 3 2 1 3 3 2 4 7 13 12 10 8 7 7 5 4 4 3 3 3 3 5 3 4 4 1 2 2 3 4 4 3 4 5 5 5 4 4 5 6 7 7
4 3 2 2 1 2 3 2 2 3 3 3 5 6 9 12 12 10 9 8 7 6 5 4 3 2 2 2 2 1 1 2 2 4 4 4 4 4 5 1 1 3 4 4 3 5 7 10 7
3 2 2 1 1 1 2 1 2 2 1 2 5 9 12 12 11 9 8 7 6 5 5 3 3 2 1 1 1 1 2 2 2 4 4 4 4 4 4 4 2 3 5 5 3 6 6 6 5
3 1 1 1 1 1 1 1 2 3 1 2 5 10 13 12 11 9 8 6 6 5 4 3 2 2 1 0 1 0 1 2 3 3 4 4 3 4 4 4 4 4 4 4 5 4 5 6 6
4 2 1 0 1 1 1 2 2 3 1 3 7 10 11 10 9 8 6 6 6 5 5 3 2 1 1 1 0 1 1 3 3 3 4 4 4 5 4 4 4 5 5 4 5 5 5 5 5
3 3 2 1 2 2 2 2 3 2 2 6 8 10 11 10 9 8 7 7 6 6 5 4 3 2 1 1 1 1 2 1 3 3 4 5 4 4 4 5 4 5 5 5 5 6 5 5 5
3 4 3 2 2 1 2 3 3 2 4 6 8 9 9 9 9 8 8 7 6 5 5 4 3 3 2 1 1 1 2 2 3 3 4 4 5 5 5 5 5 5 5 6 5 6 5 5 5
4 5 4 2 2 2 3 1 2 2 5 6 7 8 9 9 9 9 8 7 6 6 5 4 4 3 2 1 1 1 2 3 3 3 4 5 5 5 5 5 5 5 5 5 4 5 5 5 5
5 6 5 4 2 2 4 2 1 2 4 5 7 8 9 9 9 8 8 7 7 7 6 5 5 4 3 2 1 1 2 2 3 3 3 5 5 6 5 4 5 5 5 5 5 4 5 5 5
6 5 5 4 2 3 4 3 1 1 2 4 5 7 8 8 8 7 7 7 7 7 7 6 6 4 3 2 1 1 2 2 2 3 3 4 5 5 5 4 5 5 4 4 4 5 5 5 5
4 4 4 3 1 2 2 1 2 3 1 1 2 5 6 7 6 6 7 8 8 8 8 7 7 6 4 2 2 2 2 2 2 2 3 3 4 5 5 5 5 5 4 5 5 5 5 5 5
4 5 4 3 1 1 1 3 6 6 4 3 1 1 3 4 6 6 7 8 9 9 9 8 8 6 5 3 2 2 2 3 3 3 3 4 4 5 5 6 5 4 4 5 5 4 5 4 3
5 3 3 2 2 2 3 7 8 7 7 6 5 3 2 1 3 4 5 7 8 9 9 8 8 7 6 5 3 2 2 3 3 3 3 3 4 4 5 6 6 5 5 4 5 5 5 4 3
4 1 1 1 3 3 1 6 8 6 8 8 7 5 4 2 0 1 3 5 7 7 7 8 8 7 7 6 5 4 3 4 4 4 3 4 4 4 5 5 5 5 5 5 5 4 4 5 4
3 2 1 1 3 5 3 4 6 7 7 8 7 6 5 3 2 1 1 3 4 5 6 7 7 7 7 7 5 5 5 4 4 4 4 5 4 4 4 5 5 5 5 5 5 4 4 4 4
4 5 4 3 4 5 3 2 6 6 7 7 7 7 6 5 3 2 1 1 2 3 5 6 7 7 7 7 7 7 6 5 5 5 5 4 4 4 4 4 5 5 5 5 4 4 4 4 4
4 4 5 5 4 4 3 3 6 7 7 7 8 8 8 7 5 4 3 1 0 2 3 5 7 7 8 8 8 7 7 6 6 6 4 5 4 4 4 4 5 5 5 5 4 4 4 3 4
1 2 1 3 4 5 3 5 6 7 7 7 8 8 9 9 8 6 4 2 1 1 2 3 5 6 7 8 8 7 7 6 5 5 5 5 4 4 4 5 5 5 5 5 4 4 4 4 3
2 1 3 1 3 4 5 6 6 7 9 10 10 11 11 10 9 8 6 5 3 2 1 2 3 5 6 7 7 7 7 7 6 6 5 5 5 4 5 5 5 5 5 5 5 4 4 4 4
2 2 2 2 3 4 6 5 2 5 8 10 11 12 12 11 10 10 8 7 5 4 3 2 3 4 4 5 6 6 7 7 7 6 6 5 5 5 5 5 5 5 4 4 4 5 3 4 3
3 2 1 1 1 2 4 4 4 5 7 8 10 10 10 11 10 10 9 8 7 5 4 3 3 3 4 5 5 6 7 7 7 7 7 6 6 6 6 6 6 5 5 4 4 4 4 5 4
1 0 2 2 2 1 1 4 5 5 6 7 8 9 9 10 10 10 10 9 9 8 6 5 5 4 4 4 5 5 6 7 8 8 8 7 7 6 7 6 6 5 5 5 4 4 4 5 4
Wind_Direction
169 172 235 251 234 150 79 81 86 89 87 69 56 54 53 38 20 60 94 120 121 127 127 132 129 125 119 116 115 113 110 110 111 111 110 109 109 109 109 110 118 128 15 327 333 357 8 11 21
167 186 242 254 260 107 86 88 87 72 86 106 86 67 66 69 63 91 112 117 126 124 124 118 117 116 110 107 108 111 107 102 100 100 95 91 89 81 72 31 349 338 327 316 312 316 328 330 335
161 231 267 260 45 66 88 88 85 89 94 109 89 60 50 69 87 101 114 128 126 119 115 109 113 107 104 99 94 92 90 87 83 77 73 66 52 32 8 349 329 319 311 302 303 306 319 323 319
188 219 236 232 94 71 83 102 104 113 102 87 101 88 77 66 88 111 123 129 121 116 111 108 107 105 103 98 95 92 88 83 76 65 51 36 15 352 344 333 322 314 305 299 300 304 305 312 311
216 242 212 153 96 88 92 101 129 106 96 94 98 92 91 88 105 119 125 125 121 116 110 111 105 102 98 92 86 82 76 69 56 43 29 16 0 350 337 325 316 309 301 301 305 307 306 303 305
210 234 213 145 113 109 109 119 142 99 100 111 110 102 96 116 125 125 125 127 121 117 115 113 113 102 93 87 81 76 68 58 46 33 24 18 7 354 343 327 315 308 297 290 295 296 297 292 293
243 228 205 135 126 121 104 125 127 98 105 101 104 108 119 135 133 132 129 128 124 122 119 114 118 119 112 91 76 70 66 58 48 36 26 17 9 1 351 336 325 311 299 291 289 288 285 279 275
263 240 184 158 136 112 112 137 91 68 90 98 120 111 129 143 143 139 135 136 137 135 128 118 110 107 111 111 93 73 64 58 54 47 32 2 286 253 310 304 353 330 316 302 289 283 277 272 266
233 220 177 141 124 115 141 144 115 98 120 118 105 81 116 139 148 149 149 151 152 151 148 139 125 112 99 84 98 107 102 82 102 97 74 293 309 318 280 15 6 340 329 316 301 289 276 264 242
218 209 152 95 98 120 152 157 144 167 145 135 132 123 136 150 158 161 163 161 162 163 162 156 144 127 110 78 94 73 55 50 0 1 354 335 339 327 315 108 298 318 313 276 266 278 258 248 243
208 205 133 124 79 145 161 173 194 216 152 143 150 150 155 162 166 170 168 164 160 159 161 167 163 145 114 95 57 28 7 2 345 352 344 330 324 316 312 314 278 281 279 286 267 262 261 253 246
186 145 141 98 83 190 190 182 211 242 345 90 137 148 158 168 171 173 171 171 168 173 173 171 179 174 164 101 75 317 343 343 346 342 337 331 331 319 326 309 320 308 301 304 292 285 278 270 258
194 156 150 191 185 206 245 243 263 253 249 149 147 158 164 168 173 175 178 181 181 182 184 179 182 184 165 97 299 297 343 337 347 342 329 337 326 321 323 309 313 305 309 296 289 285 285 280 274
169 175 181 203 190 199 256 270 250 224 165 164 166 170 173 173 180 181 190 198 196 193 189 177 188 180 202 204 247 341 343 337 328 335 335 335 328 320 316 311 310 309 307 307 297 286 284 276 274
169 177 165 173 199 195 253 236 221 192 183 179 179 177 178 180 185 196 199 203 202 196 188 177 184 189 198 245 331 327 315 324 331 336 332 336 331 319 313 311 311 311 306 300 295 294 287 276 270
183 188 174 142 177 194 236 194 125 160 195 192 189 182 188 193 197 202 205 206 201 197 189 175 184 191 184 202 279 313 320 324 325 328 327 330 330 325 321 313 311 311 305 302 296 291 286 279 274
180 183 174 151 162 204 231 246 108 164 211 208 198 194 195 198 204 205 208 208 202 198 193 186 186 189 183 188 225 286 302 308 316 322 329 327 328 326 323 318 315 311 304 301 296 292 292 288 285
168 167 161 147 134 214 224 256 2 136 223 225 210 207 204 205 202 200 204 204 199 198 194 187 185 190 183 191 228 246 279 296 308 317 326 328 325 327 324 311 312 314 304 302 298 294 284 288 285
159 158 142 111 106 223 226 286 37 57 95 218 212 215 217 214 198 190 196 198 197 196 196 192 193 187 186 192 235 267 285 297 302 311 322 313 316 321 319 311 317 312 306 305 301 294 284 278 286
159 148 126 115 84 251 101 87 79 71 60 39 23 249 219 210 203 192 197 197 202 199 200 199 198 195 195 195 227 265 295 291 303 295 293 305 314 317 316 318 312 310 302 296 299 293 292 287 271
142 130 107 103 146 156 143 105 84 73 64 56 42 27 40 196 213 198 203 204 204 205 202 203 202 199 200 196 210 236 254 265 263 277 292 302 304 306 312 315 312 309 303 304 298 290 282 286 273
131 102 174 210 177 110 90 106 71 55 62 50 42 38 34 38 17 199 209 214 212 210 206 208 207 209 204 200 215 242 270 291 302 300 297 293 290 299 305 306 305 304 304 301 299 294 280 275 271
107 119 153 162 143 127 79 108 81 59 50 36 32 31 28 26 25 23 216 213 212 208 209 215 213 214 212 215 217 237 261 283 292 291 290 293 297 294 297 303 304 305 302 300 298 294 281 268 269
148 152 139 167 176 121 57 102 79 52 30 25 28 30 28 28 31 31 46 144 180 196 208 214 217 218 216 219 224 235 255 267 280 284 292 293 291 288 294 298 300 302 304 300 295 288 275 270 270
203 200 165 159 155 115 87 89 75 44 29 23 24 30 33 35 33 31 29 30 196 208 215 218 220 223 220 223 229 236 246 259 267 279 283 287 291 290 298 296 298 303 304 300 295 284 280 265 266
178 275 213 161 147 130 134 110 87 49 41 37 38 38 38 37 31 26 19 12 353 265 235 234 231 233 230 233 237 239 241 250 264 267 278 280 287 293 298 293 294 297 299 296 292 282 270 268 259
159 105 359 102 130 145 127 120 110 54 44 40 40 39 37 32 29 26 22 18 12 354 310 265 251 244 239 241 243 245 246 247 256 260 265 274 276 284 288 287 286 290 293 293 291 282 270 271 266
14 124 200 208 173 156 146 143 108 34 29 32 34 33 31 29 28 27 26 21 16 9 357 324 282 270 258 253 248 247 250 249 252 257 260 267 272 278 278 281 282 287 289 287 285 284 278 270 262
157 164 157 134 293 211 169 126 56 46 35 32 34 34 32 29 27 26 25 23 17 12 7 355 330 302 284 272 263 253 251 251 250 251 254 256 263 265 270 273 277 281 284 282 278 281 269 269 265
319 325 236 240 172 251 219 111 74 70 53 42 37 35 33 30 29 29 27 26 22 15 5 354 342 329 309 290 279 268 263 254 253 253 252 253 256 261 266 269 268 273 275 273 276 278 273 269 270
Height
1508 1507 1508 1509 1507 1503 1506 1505 1503 1504 1505 1507 1507 1506 1506 1508 1510 1517 1517 1516 1517 1518 1519 1520 1521 1522 1523 1524 1525 1526 1526 1527 1527 1528 1529 1529 1529 1529 1530 1530 1530 1530 1530 1530 1530 1530 1529 1529 1528
1508 1508 1510 1509 1503 1506 1508 1503 1504 1505 1507 1508 1508 1508 1508 1511 1514 1516 1516 1517 1519 1520 1521 1522 1522 1523 1524 1525 1526 1526 1527 1527 1528 1528 1529 1529 1529 1529 1530 1530 1530 1530 1530 1529 1529 1530 1529 1529 1529
1508 1509 1511 1505 1503 1505 1507 1504 1504 1506 1508 1508 1509 1509 1510 1514 1516 1517 1518 1519 1520 1522 1522 1522 1523 1524 1525 1525 1526 1527 1527 1528 1528 1528 1529 1529 1529 1529 1529 1529 1529 1530 1530 1529 1529 1529 1529 1529 1528
1510 1511 1510 1505 1505 1503 1503 1504 1505 1507 1509 1509 1509 1511 1513 1517 1517 1518 1519 1521 1522 1523 1524 1524 1524 1525 1525 1526 1526 1527 1527 1528 1528 1528 1528 1528 1528 1528 1529 1529 1529 1529 1529 1529 1529 1528 1528 1528 1528
1510 1510 1506 1506 1505 1504 1504 1505 1506 1506 1508 1509 1510 1511 1515 1518 1518 1519 1520 1522 1524 1525 1525 1525 1525 1526 1526 1527 1527 1527 1528 1528 1528 1528 1528 1528 1527 1527 1527 1527 1527 1527 1527 1527 1527 1527 1527 1527 1527
1511 1508 1506 1507 1506 1505 1505 1507 1507 1507 1509 1511 1511 1512 1517 1519 1520 1521 1522 1524 1525 1526 1527 1527 1526 1527 1527 1527 1528 1528 1528 1528 1528 1527 1527 1527 1527 1527 1526 1526 1526 1526 1526 1526 1526 1526 1526 1526 1526
1510 1506 1505 1505 1507 1506 1507 1508 1508 1508 1509 1511 1512 1513 1517 1520 1521 1522 1523 1524 1526 1527 1528 1529 1529 1529 1528 1528 1528 1528 1528 1528 1528 1527 1527 1527 1526 1526 1525 1525 1525 1524 1524 1524 1524 1524 1524 1524 1524
1509 1507 1504 1504 1507 1508 1508 1509 1510 1509 1510 1513 1514 1514 1517 1521 1522 1523 1524 1526 1527 1528 1529 1530 1530 1531 1531 1530 1529 1528 1528 1528 1528 1527 1526 1526 1525 1525 1524 1524 1523 1523 1522 1522 1522 1522 1522 1522 1523
1510 1508 1506 1506 1507 1508 1508 1509 1511 1511 1512 1514 1515 1516 1518 1520 1522 1524 1525 1527 1528 1529 1530 1530 1531 1531 1531 1531 1530 1529 1529 1528 1528 1527 1526 1526 1526 1526 1525 1523 1522 1521 1521 1520 1520 1520 1520 1520 1521
1509 1506 1506 1506 1506 1507 1509 1509 1510 1511 1511 1513 1515 1517 1518 1520 1523 1524 1526 1527 1529 1530 1531 1531 1531 1531 1531 1531 1531 1530 1530 1529 1529 1528 1527 1526 1526 1525 1524 1522 1521 1520 1519 1519 1518 1518 1518 1519 1520
1507 1505 1506 1507 1508 1509 1509 1510 1511 1511 1510 1512 1514 1517 1519 1521 1523 1525 1527 1528 1529 1530 1531 1531 1532 1532 1532 1531 1531 1531 1530 1529 1529 1527 1526 1525 1525 1524 1523 1522 1521 1520 1519 1519 1518 1518 1518 1518 1518
1507 1507 1508 1508 1510 1510 1510 1510 1511 1511 1512 1513 1514 1516 1518 1521 1523 1525 1527 1528 1529 1530 1531 1532 1532 1532 1532 1532 1531 1530 1530 1529 1529 1527 1526 1525 1524 1523 1522 1521 1520 1519 1518 1517 1517 1516 1516 1516 1517
1506 1507 1509 1510 1510 1510 1510 1510 1511 1511 1512 1513 1515 1516 1518 1520 1523 1525 1527 1528 1530 1530 1531 1532 1532 1532 1532 1531 1530 1531 1530 1529 1528 1526 1525 1524 1523 1522 1521 1520 1519 1518 1517 1516 1515 1515 1515 1515 1515
1506 1508 1508 1509 1509 1510 1510 1510 1511 1510 1512 1513 1515 1516 1518 1520 1523 1525 1527 1528 1529 1530 1531 1531 1531 1531 1531 1531 1531 1530 1530 1528 1527 1526 1525 1524 1522 1521 1520 1519 1518 1517 1516 1515 1514 1514 1513 1513 1513
1507 1507 1507 1508 1508 1509 1510 1508 1508 1509 1511 1513 1514 1516 1517 1519 1522 1524 1526 1527 1529 1530 1531 1531 1531 1531 1531 1531 1530 1530 1529 1528 1527 1525 1524 1523 1521 1520 1519 1518 1517 1516 1514 1514 1513 1512 1511 1511 1511
1505 1505 1507 1506 1507 1509 1511 1510 1506 1509 1510 1511 1513 1515 1517 1519 1521 1523 1525 1526 1528 1529 1530 1530 1530 1530 1530 1530 1529 1529 1528 1527 1526 1525 1523 1522 1521 1519 1518 1516 1516 1514 1513 1512 1511 1510 1510 1509 1509
1505 1507 1506 1507 1506 1507 1507 1507 1505 1508 1509 1510 1511 1513 1515 1517 1520 1521 1523 1525 1526 1528 1529 1529 1530 1530 1529 1529 1528 1528 1527 1526 1525 1524 1522 1521 1520 1518 1517 1515 1514 1513 1511 1510 1509 1509 1508 1508 1507
1507 1504 1505 1506 1505 1506 1506 1504 1504 1507 1508 1508 1510 1511 1513 1515 1518 1520 1521 1523 1525 1526 1527 1528 1528 1528 1528 1528 1528 1527 1526 1525 1524 1523 1521 1519 1518 1517 1516 1514 1513 1511 1510 1509 1508 1507 1506 1505 1505
1501 1503 1504 1505 1505 1505 1504 1503 1503 1506 1507 1508 1509 1510 1512 1514 1517 1519 1520 1521 1523 1524 1526 1526 1527 1527 1527 1527 1527 1526 1526 1525 1523 1522 1520 1518 1517 1516 1514 1513 1511 1509 1508 1507 1506 1505 1505 1504 1503
1502 1503 1504 1504 1504 1504 1502 1502 1503 1507 1508 1509 1508 1509 1510 1512 1515 1517 1518 1519 1521 1523 1524 1525 1526 1526 1526 1526 1526 1525 1524 1523 1522 1521 1519 1518 1516 1514 1513 1512 1510 1508 1507 1505 1504 1503 1502 1502 1502
1503 1504 1505 1506 1504 1502 1502 1503 1503 1506 1508 1509 1509 1510 1510 1512 1513 1515 1517 1518 1519 1521 1522 1523 1524 1525 1525 1524 1524 1524 1523 1522 1521 1520 1518 1516 1515 1513 1511 1510 1509 1507 1506 1504 1503 1502 1501 1500 1500
1506 1504 1504 1504 1502 1505 1502 1511 1506 1505 1506 1508 1510 1511 1511 1512 1513 1514 1515 1516 1518 1519 1521 1522 1523 1523 1523 1523 1523 1523 1522 1522 1521 1519 1517 1515 1514 1512 1510 1509 1507 1506 1505 1503 1502 1501 1499 1499 1499
1504 1504 1503 1503 1501 1503 1503 1505 1509 1505 1509 1510 1512 1513 1513 1513 1513 1514 1514 1515 1517 1518 1519 1520 1521 1521 1521 1521 1521 1521 1521 1520 1519 1517 1516 1514 1513 1511 1509 1507 1506 1505 1503 1502 1500 1499 1498 1497 1497
1503 1504 1503 1501 1499 1513 1511 1509 1518 1513 1515 1514 1514 1514 1513 1513 1513 1514 1514 1514 1515 1516 1517 1517 1518 1519 1519 1519 1519 1519 1519 1518 1517 1516 1514 1513 1512 1510 1509 1506 1505 1504 1502 1501 1499 1498 1497 1496 1495
1502 1502 1509 1512 1514 1516 1511 1513 1522 1518 1518 1517 1516 1516 1515 1514 1513 1513 1513 1513 1514 1514 1515 1515 1516 1516 1516 1517 1517 1517 1517 1516 1515 1514 1513 1511 1511 1509 1507 1505 1504 1503 1501 1499 1498 1497 1496 1495 1494
1501 1500 1509 1519 1519 1515 1510 1514 1520 1519 1520 1520 1519 1518 1516 1515 1514 1513 1513 1513 1513 1513 1513 1513 1514 1514 1514 1515 1515 1515 1514 1514 1513 1512 1511 1510 1509 1508 1506 1504 1502 1501 1500 1498 1497 1496 1495 1494 1493
1501 1500 1500 1503 1507 1511 1512 1515 1516 1518 1519 1520 1519 1518 1517 1516 1515 1514 1513 1513 1512 1512 1512 1512 1512 1512 1512 1512 1512 1512 1512 1511 1511 1510 1509 1508 1507 1505 1504 1503 1501 1500 1498 1497 1496 1495 1494 1493 1492
1500 1500 1501 1504 1514 1519 1518 1517 1519 1520 1521 1520 1520 1519 1519 1518 1516 1515 1513 1513 1512 1511 1511 1511 1510 1511 1510 1510 1510 1509 1509 1509 1508 1507 1507 1506 1505 1504 1502 1501 1500 1499 1497 1496 1495 1494 1492 1492 1491
1503 1503 1502 1504 1505 1513 1521 1523 1521 1523 1524 1523 1523 1522 1521 1520 1518 1516 1514 1513 1512 1511 1510 1509 1509 1509 1508 1508 1507 1507 1506 1505 1505 1505 1504 1503 1502 1501 1501 1500 1499 1498 1496 1495 1494 1493 1492 1491 1491
1500 1500 1501 1506 1510 1509 1512 1526 1524 1525 1526 1526 1525 1524 1523 1521 1519 1517 1515 1513 1512 1510 1509 1509 1508 1507 1506 1506 1505 1504 1503 1503 1502 1502 1501 1501 1500 1499 1498 1498 1497 1496 1495 1494 1493 1491 1490 1490 1489